Weather in Krivtsy

Russia / Republic of Karelia     61°48′06″N   36°57′45″E
temp.,
°C
wind,
m/s
gust,
m/s
humid.,
%
clouds,
%
prec.,
mm/h
press.,
hPa
HPBL,
m
1 august, sun
sun100:00+12sw279818 0.1 999152
03:00+12sw279929 0.1 1001183
06:00+14ssw379743 0.0 1002269
09:00+19sw47675 0.0 1003753
12:00+22sw465296 0.1 10031616
15:00+22sw485399 0.3 10021774
18:00+16sw31096100 6.3 1002711
21:00+15ssw269899 12.4 1002208
2 august, mon
mon200:00+13ssw3898100 0.0 1003203
03:00+13ssw289813 0.0 1003170
06:00+14ssw279883 0.0 1004270
09:00+15sw4892100 0.0 1005599
12:00+17sw4775100 0.1 1006808
15:00+22sw3554100 0.1 10051508
18:00+20ssw3663100 0.0 1004676
21:00+16sse1181100 0.0 100311
3 august, tue
tue300:00+15ese2497100 1.3 1002104
03:00+15ene41298100 6.4 998545
06:00+15sse3996100 0.1 996400
09:00+15sw389798 0.3 995566
12:00+15w4109796 0.4 998699
15:00+20w496117 1.0 10001375
18:00+21wsw475478 0.1 10011674
21:00+16wsw411695 0.1 1002579
4 august, wed
wed400:00+14sw410840 0.0 1004444
03:00+12wsw39959 0.0 1005435
06:00+12wsw4879100 0.0 1007969
09:00+12w4990100 0.4 1009816
12:00+16wnw585284 0.2 10111698
15:00+16nw484918 0.2 10141727
18:00+16nnw45510 0.0 10151214
21:00+9nne11815 0.0 101712
5 august, thu
thu500:00+7e119463 0.0 101921
03:00+9se1179100 0.0 101940
06:00+10se127093 0.0 101993
09:00+16sse234648 0.0 1019575
12:00+20ssw223343 0.0 10182333
15:00+20wsw3435100 0.0 10182356
18:00+19se2344100 0.0 10171102
21:00+13ne2578100 0.3 1018121